EW7351 Weather Reports


Display with metric or nautical units.
time (UTC)temp
F
wind
direction
speed
MPH
gust
MPH
rain 1hr
in
rain 24hr
in
rain mn
in
humidity
%
barometer
mb
20260906161635 93 97 2.0 7.0 0.00 0.00 0.00 52 1013.3
20260906161115 92 125 1.0 7.0 0.00 0.00 0.00 53 1013.3
20260906160559 92 125 1.0 5.0 0.00 0.00 0.00 54 1013.3
20260906160058 92 82 1.0 5.0 0.00 0.00 0.00 54 1013.3
20260906155555 92 111 0.0 2.0 0.00 0.00 0.00 56 1013.3
20260906155044 91 122 1.0 5.0 0.00 0.00 0.00 57 1013.4
20260906154520 91 115 1.0 5.0 0.00 0.00 0.00 58 1013.4
20260906154016 90 129 1.0 4.0 0.00 0.00 0.00 60 1013.4
20260906153454 89 103 1.0 5.0 0.00 0.00 0.00 61 1013.3
20260906152950 89 121 2.0 4.0 0.00 0.00 0.00 62 1013.2
20260906152447 89 198 1.0 6.0 0.00 0.00 0.00 62 1013.2
20260906151918 89 60 1.0 4.0 0.00 0.00 0.00 65 1013.1
20260906151418 88 114 2.0 6.0 0.00 0.00 0.00 64 1013.2
20260906150913 88 117 1.0 6.0 0.00 0.00 0.00 64 1013.2
20260906150410 88 4 1.0 6.0 0.00 0.00 0.00 65 1013.2
20260906145842 88 127 0.0 6.0 0.00 0.00 0.00 64 1013.1
20260906145339 88 130 0.0 4.0 0.00 0.00 0.00 65 1013.1
20260906144836 87 104 1.0 4.0 0.00 0.00 0.00 66 1013.1
20260906144311 87 122 0.0 2.0 0.00 0.00 0.00 67 1013.1
20260906143743 86 322 1.0 4.0 0.00 0.00 0.00 70 1013.2
20260906143430 85 122 1.0 4.0 0.00 0.00 0.00 70 1013.2
20260906142715 85 119 1.0 5.0 0.00 0.00 0.00 70 1013.2
20260906142146 84 124 1.0 5.0 0.00 0.00 0.00 73 1013.2
20260906141644 84 120 1.0 5.0 0.00 0.00 0.00 74 1013.2
20260906141138 84 133 1.0 5.0 0.00 0.00 0.00 73 1013.2
20260906140632 83 138 1.0 4.0 0.00 0.00 0.00 75 1013.2
20260906140131 83 115 1.0 4.0 0.00 0.00 0.00 76 1013.1
20260906135618 82 133 0.0 3.0 0.00 0.00 0.00 79 1013.0
20260906135118 82 145 0.0 2.0 0.00 0.00 0.00 80 1013.0
20260906134554 81 145 0.0 2.0 0.00 0.00 0.00 82 1013.0
20260906134246 80 134 0.0 2.0 0.00 0.00 0.00 84 1013.0
20260906133524 79 116 0.0 1.0 0.00 0.00 0.00 84 1013.1
20260906132955 79 116 0.0 2.0 0.00 0.00 0.00 85 1013.0
20260906132453 78 123 0.0 0.0 0.00 0.00 0.00 87 1013.0
20260906131923 78 123 0.0 0.0 0.00 0.00 0.00 87 1013.0
20260906131358 78 123 0.0 0.0 0.00 0.00 0.00 88 1013.0
20260906130842 77 123 0.0 0.0 0.00 0.00 0.00 88 1013.0
20260906130342 77 123 0.0 0.0 0.00 0.00 0.00 88 1012.8
20260906125845 77 123 0.0 0.0 0.00 0.00 0.00 88 1012.8
20260906125316 76 123 0.0 0.0 0.00 0.00 0.00 88 1012.8
20260906124812 76 123 0.0 0.0 0.00 0.00 0.00 88 1012.7
20260906124249 76 123 0.0 0.0 0.00 0.00 0.00 88 1012.7
20260906123735 76 123 0.0 0.0 0.00 0.00 0.00 88 1012.5
20260906123206 76 123 0.0 0.0 0.00 0.00 0.00 88 1012.4
20260906122925 76 123 0.0 0.0 0.00 0.00 0.00 88 1012.4
20260906122136 76 123 0.0 0.0 0.00 0.00 0.00 88 1012.5
20260906121635 76 123 0.0 0.0 0.00 0.00 0.00 87 1012.5
20260906121111 76 123 0.0 0.0 0.00 0.00 0.00 87 1012.3
20260906120540 76 123 0.0 0.0 0.00 0.00 0.00 87 1012.4
20260906120041 76 123 0.0 0.0 0.00 0.00 0.00 87 1012.3
20260906115513 76 123 0.0 0.0 0.00 0.00 0.00 87 1012.3
20260906114958 76 123 0.0 0.0 0.00 0.00 0.00 87 1012.3
20260906114728 76 123 0.0 0.0 0.00 0.00 0.00 87 1012.2
20260906113955 76 123 0.0 0.0 0.00 0.00 0.00 87 1012.3
20260906113454 76 123 0.0 0.0 0.00 0.00 0.00 87 1012.2
20260906112956 76 123 0.0 0.0 0.00 0.00 0.00 87 1012.2
20260906112453 76 123 0.0 0.0 0.00 0.00 0.00 87 1012.1
20260906111948 75 123 0.0 0.0 0.00 0.00 0.00 87 1012.0
20260906111424 76 123 0.0 0.0 0.00 0.00 0.00 86 1012.1
20260906110922 76 123 0.0 0.0 0.00 0.00 0.00 86 1012.1
20260906110410 76 123 0.0 0.0 0.00 0.00 0.00 86 1012.0
20260906105909 76 124 0.0 0.0 0.00 0.00 0.00 85 1012.0
20260906105344 76 123 0.0 0.0 0.00 0.00 0.00 86 1012.0
20260906104842 76 123 0.0 0.0 0.00 0.00 0.00 86 1011.9
20260906104342 76 123 0.0 0.0 0.00 0.00 0.00 85 1011.9
20260906104041 76 123 0.0 0.0 0.00 0.00 0.00 85 1012.0
20260906103250 76 123 0.0 0.0 0.00 0.00 0.00 85 1011.9
20260906102740 76 123 0.0 0.0 0.00 0.00 0.00 85 1011.7
20260906102234 76 123 0.0 0.0 0.00 0.00 0.00 84 1011.7
20260906101733 77 123 0.0 0.0 0.00 0.00 0.00 84 1011.6
20260906101204 77 123 0.0 0.0 0.00 0.00 0.00 84 1011.5
20260906100700 77 123 0.0 0.0 0.00 0.00 0.00 84 1011.6
20260906100200 77 123 0.0 0.0 0.00 0.00 0.00 84 1011.6
20260906095630 77 123 0.0 0.0 0.00 0.00 0.00 83 1011.6
20260906095351 77 123 0.0 0.0 0.00 0.00 0.00 83 1011.4
20260906094824 78 123 0.0 0.0 0.00 0.00 0.00 83 1011.3
20260906094707 78 123 0.0 0.0 0.00 0.00 0.00 82 1011.3
20260906093554 78 123 0.0 0.0 0.00 0.00 0.00 83 1011.2
20260906093051 78 123 0.0 0.0 0.00 0.00 0.00 83 1011.2
20260906092548 78 123 0.0 0.0 0.00 0.00 0.00 83 1011.1
20260906092047 78 123 0.0 0.0 0.00 0.00 0.00 83 1011.1
20260906091526 78 123 0.0 0.0 0.00 0.00 0.00 83 1011.1
20260906090952 78 123 0.0 0.0 0.00 0.00 0.00 82 1011.1
20260906090450 78 123 0.0 0.0 0.00 0.00 0.00 82 1011.1
20260906085922 78 123 0.0 0.0 0.00 0.00 0.00 81 1011.1
20260906085422 78 123 0.0 0.0 0.00 0.00 0.00 81 1011.0
20260906085121 78 123 0.0 0.0 0.00 0.00 0.00 81 1011.0
20260906084400 78 123 0.0 0.0 0.00 0.00 0.00 81 1010.9
20260906083837 78 123 0.0 0.0 0.00 0.00 0.00 81 1011.0
20260906083309 78 123 0.0 0.0 0.00 0.00 0.00 81 1011.0
20260906082957 78 123 0.0 0.0 0.00 0.00 0.00 81 1011.0
20260906082236 78 123 0.0 0.0 0.00 0.00 0.00 81 1011.1
20260906081938 78 123 0.0 0.0 0.00 0.00 0.00 81 1011.1
20260906081144 78 123 0.0 0.0 0.00 0.00 0.00 81 1011.2
20260906080619 78 123 0.0 0.0 0.00 0.00 0.00 80 1011.3
20260906080337 79 123 0.0 0.0 0.00 0.00 0.00 80 1011.2
20260906075616 79 123 0.0 0.0 0.00 0.00 0.00 80 1011.3
20260906075106 79 123 0.0 0.0 0.00 0.00 0.00 79 1011.2
20260906074603 79 123 0.0 0.0 0.00 0.00 0.00 79 1011.2
20260906074104 79 123 0.0 0.0 0.00 0.00 0.00 79 1011.3
20260906073828 79 123 0.0 0.0 0.00 0.00 0.00 79 1011.3
20260906073055 79 123 0.0 2.0 0.00 0.00 0.00 78 1011.3
20260906072556 80 123 0.0 2.0 0.00 0.00 0.00 78 1011.3
20260906072031 80 228 0.0 1.0 0.00 0.00 0.00 77 1011.3
20260906071506 80 228 0.0 2.0 0.00 0.00 0.00 77 1011.3
20260906071006 80 153 0.0 2.0 0.00 0.00 0.00 77 1011.3
20260906070441 80 153 0.0 3.0 0.00 0.00 0.00 77 1011.2
20260906065938 80 233 0.0 3.0 0.00 0.00 0.00 77 1011.2
20260906065437 80 190 0.0 2.0 0.00 0.00 0.00 76 1011.2
20260906064908 80 205 0.0 2.0 0.00 0.00 0.00 76 1011.2
20260906064623 80 147 1.0 3.0 0.00 0.00 0.00 76 1011.1
20260906063909 81 125 1.0 4.0 0.00 0.00 0.00 76 1011.2
20260906063348 81 131 1.0 4.0 0.00 0.00 0.00 75 1011.3
20260906063114 81 243 1.0 4.0 0.00 0.00 0.00 75 1011.3
20260906062327 81 120 2.0 6.0 0.00 0.00 0.00 75 1011.4
20260906061828 81 177 2.0 6.0 0.00 0.00 0.00 74 1011.4
20260906061305 81 210 2.0 6.0 0.00 0.00 0.00 74 1011.5
20260906060738 81 139 2.0 7.0 0.00 0.00 0.00 74 1011.6
20260906060215 82 174 1.0 5.0 0.00 0.00 0.00 73 1011.6
20260906055656 82 256 1.0 5.0 0.00 0.00 0.00 73 1011.6
20260906055154 82 123 1.0 5.0 0.00 0.00 0.00 72 1011.6
20260906054656 82 267 2.0 6.0 0.00 0.00 0.00 72 1011.7
20260906054127 82 222 1.0 6.0 0.00 0.00 0.00 71 1011.6
20260906053626 82 247 1.0 4.0 0.00 0.00 0.00 71 1011.6
20260906053126 82 209 1.0 4.0 0.00 0.00 0.00 70 1011.5
20260906052623 82 231 2.0 4.0 0.00 0.00 0.00 69 1011.5
20260906052104 83 208 2.0 5.0 0.00 0.00 0.00 69 1011.4
20260906051539 83 250 2.0 5.0 0.00 0.00 0.00 68 1011.4
20260906051038 83 150 2.0 6.0 0.00 0.00 0.00 68 1011.4
20260906050525 83 225 2.0 6.0 0.00 0.00 0.00 68 1011.5
20260906050025 83 115 2.0 6.0 0.00 0.00 0.00 67 1011.5
20260906045528 83 131 1.0 5.0 0.00 0.00 0.00 67 1011.4
20260906045011 83 251 1.0 4.0 0.00 0.00 0.00 67 1011.3
20260906044509 83 158 0.0 2.0 0.00 0.00 0.00 67 1011.2
20260906044012 83 141 1.0 4.0 0.00 0.00 0.00 67 1011.2
20260906043451 84 153 2.0 7.0 0.00 0.00 0.00 67 1011.2
20260906042949 84 183 2.0 7.0 0.00 0.00 0.00 67 1011.3
20260906042451 84 212 1.0 5.0 0.00 0.00 0.00 66 1011.4
20260906041926 84 244 2.0 7.0 0.00 0.00 0.00 66 1011.5
20260906041636 84 109 2.0 7.0 0.00 0.00 0.00 65 1011.5
20260906040921 84 212 2.0 6.0 0.00 0.00 0.00 65 1011.5
20260906040424 84 213 2.0 6.0 0.00 0.00 0.00 64 1011.5
20260906035857 85 134 2.0 6.0 0.00 0.00 0.00 64 1011.5
20260906035332 85 210 2.0 6.0 0.00 0.00 0.00 64 1011.6
20260906034825 84 124 1.0 6.0 0.00 0.00 0.00 64 1011.5
20260906034324 84 284 0.0 2.0 0.00 0.00 0.00 65 1011.4
20260906034020 85 191 0.0 1.0 0.00 0.00 0.00 65 1011.4
20260906033254 85 228 1.0 4.0 0.00 0.00 0.00 65 1011.3
20260906032749 85 164 1.0 4.0 0.00 0.00 0.00 65 1011.3
20260906032248 85 203 1.0 5.0 0.00 0.00 0.00 64 1011.4
20260906031719 85 163 2.0 5.0 0.00 0.00 0.00 64 1011.4
20260906031657 85 136 2.0 6.0 0.00 0.00 0.00 64 1011.4
20260906030713 85 139 2.0 6.0 0.00 0.00 0.00 64 1011.3
20260906030147 85 144 3.0 7.0 0.00 0.00 0.00 63 1011.3
20260906025622 85 257 3.0 7.0 0.00 0.00 0.00 64 1011.3
20260906025052 85 223 2.0 7.0 0.00 0.00 0.00 64 1011.3
20260906024547 85 204 1.0 5.0 0.00 0.00 0.00 65 1011.3
20260906024023 86 249 1.0 5.0 0.00 0.00 0.00 65 1011.2
20260906023455 86 134 2.0 7.0 0.00 0.00 0.00 65 1011.1
20260906022926 86 158 3.0 7.0 0.00 0.00 0.00 64 1011.1
20260906022423 86 144 2.0 6.0 0.00 0.00 0.00 64 1011.0
20260906022126 86 146 3.0 8.0 0.00 0.00 0.00 63 1010.9
20260906021335 86 212 3.0 10.0 0.00 0.00 0.00 63 1010.8
20260906020838 86 236 4.0 10.0 0.00 0.00 0.00 62 1010.8
20260906020312 87 155 3.0 9.0 0.00 0.00 0.00 62 1010.6
20260906015743 87 204 2.0 9.0 0.00 0.00 0.00 62 1010.5
20260906015240 87 110 3.0 9.0 0.00 0.00 0.00 62 1010.6
20260906014737 87 163 4.0 9.0 0.00 0.00 0.00 61 1010.5
20260906014235 87 110 3.0 9.0 0.00 0.00 0.00 61 1010.6
20260906013954 87 125 3.0 8.0 0.00 0.00 0.00 60 1010.5
20260906013210 87 115 4.0 8.0 0.00 0.00 0.00 59 1010.3
20260906012702 87 265 4.0 9.0 0.00 0.00 0.00 59 1010.2
20260906012136 87 128 4.0 10.0 0.00 0.00 0.00 58 1010.1
20260906011623 88 167 4.0 10.0 0.00 0.00 0.00 57 1010.1
20260906011126 88 122 4.0 12.0 0.00 0.00 0.00 56 1010.0
20260906010621 88 136 4.0 12.0 0.00 0.00 0.00 56 1010.0
20260906010120 88 248 5.0 15.0 0.00 0.00 0.00 55 1010.0
20260906005551 89 134 6.0 15.0 0.00 0.00 0.00 54 1009.9
20260906005051 89 176 5.0 13.0 0.00 0.00 0.00 53 1009.9
20260906004550 90 147 6.0 12.0 0.00 0.00 0.00 52 1010.0
20260906004051 91 108 6.0 11.0 0.00 0.00 0.00 50 1009.9
20260906004031 92 219 6.0 12.0 0.00 0.00 0.00 48 1009.9
20260906003046 93 133 6.0 12.0 0.00 0.00 0.00 46 1009.9
20260906002807 93 115 6.0 12.0 0.00 0.00 0.00 44 1009.8
20260906002046 94 119 5.0 12.0 0.00 0.00 0.00 44 1009.7
20260906001518 95 132 5.0 10.0 0.00 0.00 0.00 44 1009.6
20260906000953 95 112 5.0 12.0 0.00 0.00 0.00 43 1009.6
20260906000644 96 136 6.0 12.0 0.00 0.00 0.00 42 1009.5
20260905235922 96 136 5.0 11.0 0.00 0.00 0.00 41 1009.4
20260905235419 97 135 4.0 11.0 0.00 0.00 0.00 40 1009.4
20260905235142 99 144 2.0 6.0 0.00 0.00 0.00 37 1009.3
20260905234612 100 123 0.0 3.0 0.00 0.00 0.00 35 1009.2
20260905234053 99 136 0.0 3.0 0.00 0.00 0.00 35 1009.2
20260905233553 99 238 1.0 4.0 0.00 0.00 0.00 35 1009.1
20260905232833 99 155 1.0 4.0 0.00 0.00 0.00 35 1009.1
20260905232329 99 110 0.0 4.0 0.00 0.00 0.00 35 1009.1
20260905231803 99 115 1.0 3.0 0.00 0.00 0.00 36 1009.2
20260905231253 99 146 2.0 5.0 0.00 0.00 0.00 35 1009.3
20260905230751 99 131 2.0 6.0 0.00 0.00 0.00 35 1009.3
20260905230250 100 129 2.0 6.0 0.00 0.00 0.00 34 1009.3
20260905225725 100 146 2.0 7.0 0.00 0.00 0.00 35 1009.2
20260905225227 100 85 2.0 7.0 0.00 0.00 0.00 35 1009.2
20260905224725 100 256 1.0 6.0 0.00 0.00 0.00 34 1009.2
20260905224225 101 243 1.0 4.0 0.00 0.00 0.00 34 1009.2
20260905223719 101 152 0.0 4.0 0.00 0.00 0.00 33 1009.1
20260905223219 100 80 0.0 1.0 0.00 0.00 0.00 35 1009.1
20260905222718 99 95 1.0 8.0 0.00 0.00 0.00 36 1009.2
20260905222218 99 245 2.0 8.0 0.00 0.00 0.00 35 1009.2
20260905221945 99 228 3.0 7.0 0.00 0.00 0.00 36 1009.1
20260905221220 99 120 2.0 9.0 0.00 0.00 0.00 35 1009.1
20260905220704 100 105 2.0 9.0 0.00 0.00 0.00 34 1009.2
20260905220202 100 89 3.0 6.0 0.00 0.00 0.00 35 1009.3
20260905215700 100 214 2.0 7.0 0.00 0.00 0.00 35 1009.3
20260905215143 101 123 3.0 8.0 0.00 0.00 0.00 34 1009.4
20260905214846 101 143 3.0 11.0 0.00 0.00 0.00 33 1009.4
20260905214109 101 119 1.0 11.0 0.00 0.00 0.00 33 1009.4
20260905213823 101 106 0.0 6.0 0.00 0.00 0.00 34 1009.4
20260905213106 101 160 1.0 6.0 0.00 0.00 0.00 36 1009.5
20260905212605 100 159 2.0 6.0 0.00 0.00 0.00 34 1009.6
20260905212103 100 124 2.0 6.0 0.00 0.00 0.00 34 1009.6
20260905211540 100 113 2.0 7.0 0.00 0.00 0.00 37 1009.6
20260905211016 98 88 2.0 6.0 0.00 0.00 0.00 37 1009.7
20260905210515 99 4 2.0 6.0 0.00 0.00 0.00 35 1009.9
20260905205959 99 134 1.0 5.0 0.00 0.00 0.00 35 1009.9
20260905205456 100 347 1.0 7.0 0.00 0.00 0.00 35 1010.0
20260905204959 100 108 1.0 7.0 0.00 0.00 0.00 35 1010.1
20260905204434 100 17 2.0 5.0 0.00 0.00 0.00 36 1010.2
20260905203907 100 127 3.0 9.0 0.00 0.00 0.00 36 1010.2
20260905203635 100 185 2.0 9.0 0.00 0.00 0.00 36 1010.3
20260905202844 100 136 1.0 6.0 0.00 0.00 0.00 37 1010.3
20260905202351 99 325 2.0 6.0 0.00 0.00 0.00 34 1010.5
20260905201827 100 107 2.0 8.0 0.00 0.00 0.00 35 1010.5
20260905201326 99 243 3.0 8.0 0.00 0.00 0.00 36 1010.5
20260905201044 101 205 1.0 6.0 0.00 0.00 0.00 33 1010.6
20260905200327 101 115 1.0 4.0 0.00 0.00 0.00 34 1010.7
20260905195813 100 114 1.0 4.0 0.00 0.00 0.00 36 1010.7
20260905195300 99 137 2.0 5.0 0.00 0.00 0.00 36 1010.8
20260905194800 100 75 2.0 6.0 0.00 0.00 0.00 35 1010.9
20260905194257 99 214 2.0 7.0 0.00 0.00 0.00 36 1010.9
20260905194023 99 128 2.0 7.0 0.00 0.00 0.00 34 1011.0
20260905193230 100 129 1.0 6.0 0.00 0.00 0.00 35 1011.1
20260905192732 98 146 1.0 7.0 0.00 0.00 0.00 36 1011.2
20260905192209 98 52 2.0 7.0 0.00 0.00 0.00 37 1011.3
20260905191710 98 127 3.0 8.0 0.00 0.00 0.00 39 1011.4
20260905191416 98 220 2.0 8.0 0.00 0.00 0.00 37 1011.5
20260905190642 99 125 1.0 6.0 0.00 0.00 0.00 38 1011.7
20260905185612 98 186 1.0 5.0 0.00 0.00 0.00 37 1012.0
20260905185049 98 91 2.0 8.0 0.00 0.00 0.00 40 1012.1
20260905184538 97 136 3.0 8.0 0.00 0.00 0.00 40 1012.2
20260905184040 97 153 3.0 8.0 0.00 0.00 0.00 40 1012.2
20260905183753 97 165 3.0 8.0 0.00 0.00 0.00 39 1012.3
20260905183004 98 217 2.0 8.0 0.00 0.00 0.00 40 1012.3
20260905182505 98 124 2.0 5.0 0.00 0.00 0.00 39 1012.5
20260905182007 98 200 2.0 8.0 0.00 0.00 0.00 39 1012.6
20260905181724 98 124 2.0 8.0 0.00 0.00 0.00 38 1012.6
20260905181004 97 261 2.0 8.0 0.00 0.00 0.00 38 1012.6
20260905180436 98 118 2.0 8.0 0.00 0.00 0.00 38 1012.8
20260905175912 97 127 2.0 6.0 0.00 0.00 0.00 39 1012.9
20260905175344 97 51 2.0 8.0 0.00 0.00 0.00 39 1012.9
20260905174818 97 143 2.0 8.0 0.00 0.00 0.00 40 1013.0
20260905174251 97 129 2.0 7.0 0.00 0.00 0.00 41 1013.1
20260905173746 97 231 2.0 7.0 0.00 0.00 0.00 39 1013.1
20260905173443 97 141 2.0 6.0 0.00 0.00 0.00 40 1013.1
20260905172715 97 142 2.0 7.0 0.00 0.00 0.00 41 1013.2
20260905172150 96 129 3.0 8.0 0.00 0.00 0.00 41 1013.2
20260905171648 96 137 1.0 8.0 0.00 0.00 0.00 41 1013.3
20260905171133 96 90 1.0 7.0 0.00 0.00 0.00 41 1013.3
20260905170604 96 114 2.0 9.0 0.00 0.00 0.00 42 1013.4
20260905170105 95 130 3.0 9.0 0.00 0.00 0.00 43 1013.4
20260905170028 95 155 3.0 8.0 0.00 0.00 0.00 43 1013.4
20260905165044 96 236 1.0 8.0 0.00 0.00 0.00 44 1013.4
20260905164542 97 142 0.0 8.0 0.00 0.00 0.00 43 1013.4
20260905164306 96 213 0.0 5.0 0.00 0.00 0.00 45 1013.5
20260905163514 96 281 1.0 5.0 0.00 0.00 0.00 46 1013.5
20260905163005 95 278 0.0 3.0 0.00 0.00 0.00 46 1013.5
20260905162503 96 25 0.0 3.0 0.00 0.00 0.00 44 1013.5